Orbital Elements at Epoch 2459000.5 (2020-May-31.0) TDB
Reference: JPL 13 (heliocentric ecliptic J2000)
Element | Value | Uncertainty (1-sigma) | Units |
e | .1743790483917526 | 5.7652e-08 | |
a | 2.568061006828813 | 1.7043e-08 | au |
q | 2.120244972246038 | 1.525e-07 | au |
i | 6.4842160695827 | 4.7666e-06 | deg |
node | 58.06609427681468 | 5.991e-05 | deg |
peri | 312.0634344563904 | 6.3464e-05 | deg |
M | 120.4402783878682 | 2.2854e-05 | deg |
tp | 2458497.606894412360 (2019-Jan-14.10689441) | 9.2236e-05 | TDB |
period | 1503.16422740672 4.12 | 1.4964e-05 4.097e-08 | d yr |
n | .2394947893491831 | 2.3842e-09 | deg/d |
Q | 3.015877041411587 | 2.0015e-08 | au |
|
| | Orbit Determination Parameters
Additional Information
|